Погода в Намлеа

Индонезия     3°15′19″S   127°03′59″E
темп.,
°C
ветер,
м/с
пор.,
м/с
влажн.,
%
обл.,
%
осадки,
мм/ч
давл.,
гПа
погр.,
м
2 марта, вт
вт200:00+25з1185100 2.1 101149
03:00+24сз1288100 3.3 101084
06:00+24сз1393100 2.0 1010146
09:00+24зюз0192100 2.8 1012120
12:00+27ссв1381100 0.3 1011436
15:00+27с697999 3.6 1009962
18:00+25ссз3784100 3.3 1009648
21:00+24сз2590100 3.4 1010176
3 марта, ср
ср300:00+24з1290100 0.1 101187
03:00+24зсз2392100 0.9 1010123
06:00+23зюз129597 0.4 101058
09:00+26сз257981 1.4 1012507
12:00+30сз365963 0.4 10111149
15:00+31сз345482 0.4 10081208
18:00+27ссз4773100 0.0 1008461
21:00+25сз2482100 0.0 1011176
4 марта, чт
чт400:00+24зсз228599 0.0 101188
03:00+23з1288100 0.0 100964
06:00+23юз129099 0.0 101036
09:00+27зюз117299 0.0 1012264
12:00+31с345778 0.0 10111198
15:00+29ссз566789 1.0 1009918
18:00+26ссз2583100 5.3 1008356
21:00+25сз238883 7.9 101177
5 марта, пт
пт500:00+24з129035 0.5 101151
03:00+24зюз128858 0.7 100935
06:00+23зюз118788 0.0 101033
09:00+27юз117276 0.0 1011266
12:00+32ссв225475 0.0 10101368
15:00+29ссз457060 2.9 1008812
18:00+26ссз368787 9.1 1008235
21:00+25зсз129086 18.0 101060
6 марта, сб
сб600:00+24юз129294 2.6 101139
03:00+24з129196 5.4 100939
06:00+23зюз119288 0.0 100934
09:00+24зсз128785 0.1 101284
12:00+28ссз4677100 0.3 1011859
15:00+27ссз5679100 0.9 1008714
18:00+24сз2492100 2.3 1009200
21:00+24сз2391100 2.4 1010107